Weather in Sidel'nikovo

Russia / Mari El Republic     56°09′57″N   47°38′04″E
temp.,
°C
wind,
m/s
gust,
m/s
humid.,
%
clouds,
%
prec.,
mm/h
press.,
hPa
HPBL,
m
27 february, sat
sat2700:00−11se61294100 4.1 998523
03:00−11ese4895100 5.2 997301
06:00−12ene3795100 0.4 996309
09:00−12ne4795100 1.1 998391
12:00−11nne4790100 0.4 999615
15:00−11nne5891100 0.5 1002671
18:00−13n51091100 0.1 1004564
21:00−15n41093100 0.1 1006360
28 february, sun
sun2800:00−17nnw4995100 0.0 1007309
03:00−18nnw4109697 0.1 1009272
06:00−20nnw399768 0.0 1009218
09:00−18nnw379463 0.0 1010278
12:00−13nnw469293 0.0 1011427
15:00−12nnw479096 0.0 1013566
18:00−16nnw2396100 0.0 101440
21:00−19n229884 0.0 101720
1 march, mon
mon100:00−21nnw22980 0.0 101820
03:00−22nnw22980 0.0 102020
06:00−23nnw12986 0.0 102120
09:00−18nw12946 0.0 1022157
12:00−12w128770 0.0 1022385
15:00−10wsw249084 0.0 1021472
18:00−14sw3596100 0.0 1019105
21:00−13ssw389595 0.0 1017226
2 march, tue
tue200:00−10ssw41094100 0.0 1013341
03:00−9ssw51295100 0.3 1008456
06:00−6ssw51295100 1.3 1004587
09:00−1sw51097100 2.3 1001521
12:000w48100100 1.0 999515
15:000wnw4998100 1.5 998631
18:00−1wnw51197100 0.6 998754
21:00−1nw61296100 2.4 1000814
3 march, wed
wed300:00−2nnw51295100 1.3 1000779
03:00−3nnw51291100 1.9 1002731
06:00−6nw4119498 0.0 1003405
09:00−4nw5109399 0.3 1004661
12:00−3nnw5992100 0.2 1006792
15:00−4nnw5988100 0.5 1007823
18:00−5nw41090100 0.1 1008561
21:00−9wnw239296 0.1 101077